Lungi, Sierra Leone

7:56 AM GMT on August 24, 2016 (GMT +0000)
Lungi

Weather History for GFLL - February, 2013

Change the Weather History Date:

Friday, February 1, 2013

  Actual Average Record
Temperature  
Mean Temperature 83 °F -  
Max Temperature 89 °F 87 °F 91 °F (2005)
Min Temperature 77 °F 75 °F 68 °F (2008)
Cooling Degree Days 18    
Growing Degree Days 33 (Base 50)    
Moisture  
Dew Point 73 °F    
Average Humidity 75    
Maximum Humidity 94    
Minimum Humidity 52    
Precipitation  
Precipitation 0.00 in 0.01 in - ()
Sea Level Pressure  
Sea Level Pressure 29.85 in    
Wind  
Wind Speed 7 mph ()    
Max Wind Speed 12 mph    
Max Gust Speed -    
Visibility 4.0 miles    
Events      
Averages and records for this station are not official NWS values.
T = Trace of Precipitation, MM = Missing Value Source: Averaged Metar Reports

Daily Weather History Graph

Daily Weather History Graph

Search for Another Location

Airport or City:

Trip Planner

Search our weather history database for the weather conditions in past years. The results will help you decide how hot, cold, wet, or windy it might be!

Date:

Astronomy

Feb. 01, 2013 Rise Set
Actual Time 7:13 AM GMT 6:59 PM GMT
Civil Twilight 6:51 AM GMT 7:21 PM GMT
Nautical Twilight 6:26 AM GMT 7:46 PM GMT
Astronomical Twilight 6:01 AM GMT 8:11 PM GMT
Moon 11:32 PM GMT (2/1) 10:53 AM GMT (2/1)
Length of Visible Light 12h 29m
Length of Day
11h 45m
Waning Gibbous, 72% of the Moon is Illuminated
Feb 1
Waning Gibbous
Feb 3
Last Quarter
Feb 10
New
Feb 17
First Quarter
Feb 25
Full

Hourly Weather History & Observations

Time (GMT) Temp. Heat Index Dew Point Humidity Pressure Visibility Wind Dir Wind Speed Gust Speed Precip Events Conditions
12:00 AM 78.8 °F - 75.2 °F 89% 29.86 in - WNW 6.9 mph - N/A   Clear
2:30 AM 80.6 °F 87.1 °F 77.0 °F 89% 29.86 in - North - - N/A   Scattered Clouds
3:00 AM 80.6 °F 86.2 °F 75.2 °F 84% 29.86 in 6.2 mi NW 8.1 mph - N/A   Scattered Clouds
4:00 AM 78.8 °F - 73.4 °F 83% 29.83 in 6.2 mi NNW 6.9 mph - N/A   Scattered Clouds
6:30 AM 77.0 °F - 75.2 °F 94% 29.86 in - North - - N/A   Clear
7:30 AM 77.0 °F - 71.6 °F 83% 29.89 in - North - - N/A   Partly Cloudy
8:00 AM - - - N/A% - - North - - N/A   Unknown
9:00 AM 77.0 °F - 75.2 °F 94% 29.92 in 2.5 mi ESE 9.2 mph - N/A   Mist
9:30 AM - - - N/A% 29.92 in 3.1 mi NE 9.2 mph - N/A   Haze
10:00 AM - - - N/A% 29.92 in 3.1 mi NE 11.5 mph - N/A   Haze
10:30 AM - - - N/A% 29.92 in 3.7 mi North 9.2 mph - N/A   Haze
11:30 AM - - - N/A% 29.89 in 3.7 mi East 11.5 mph - N/A   Haze
12:00 PM - - - N/A% 29.89 in 3.7 mi ENE 10.4 mph - N/A   Haze
1:00 PM - - - N/A% 29.86 in - WSW 9.2 mph - N/A   Clear
1:30 PM - - - N/A% 29.86 in - WSW 8.1 mph - N/A   Clear
2:30 PM 87.8 °F 93.8 °F 71.6 °F 58% 29.83 in - WSW 8.1 mph - N/A   Clear
3:00 PM 89.6 °F 94.7 °F 69.8 °F 52% 29.80 in - WNW 6.9 mph - N/A   Clear
3:30 PM 89.6 °F 94.7 °F 69.8 °F 52% 29.80 in - North - - N/A   Clear
4:00 PM - - - N/A% 29.80 in - West 6.9 mph - N/A   Clear
5:00 PM 86.0 °F 93.4 °F 73.4 °F 66% 29.77 in - West 4.6 mph - N/A   Clear
5:30 PM 86.0 °F 93.4 °F 73.4 °F 66% 29.80 in - West 6.9 mph - N/A   Clear
6:00 PM 84.2 °F 90.9 °F 73.4 °F 70% 29.80 in - West 6.9 mph - N/A   Clear
7:00 PM 82.4 °F 88.2 °F 73.4 °F 74% 29.80 in - WNW 9.2 mph - N/A   Clear
7:30 PM 82.4 °F 88.2 °F 73.4 °F 74% 29.83 in - North - - N/A   Clear
9:00 PM - - - N/A% 29.86 in - WSW 8.1 mph - N/A   Clear
10:30 PM - - - N/A% 29.86 in - WSW 5.8 mph - N/A   Clear
11:00 PM - - - N/A% 29.89 in - WSW 5.8 mph - N/A   Clear